Weather History for Gizan, Saudi Arabia

Change the Weather History Date:

Thursday, February 14, 2013

  Actual Average Record
Temperature  
Mean Temperature 82 °F -  
Max Temperature 87 °F 85 °F 89 °F (2002)
Min Temperature 77 °F 73 °F 37 °F (2006)
Cooling Degree Days 17    
Growing Degree Days 32 (Base 50)    
Moisture  
Dew Point 72 °F    
Average Humidity 70    
Maximum Humidity 79    
Minimum Humidity 54    
Precipitation  
Precipitation 0.00 in - - ()
Sea Level Pressure  
Sea Level Pressure 29.87 in    
Wind  
Wind Speed 5 mph ()    
Max Wind Speed 14 mph    
Max Gust Speed -    
Visibility 6.0 miles    
Events      
Averages and records for this station are not official NWS values.
T = Trace of Precipitation, MM = Missing Value Source: Averaged Metar Reports

Daily Weather History Graph

Daily Weather History Graph

Search for Another Location

Airport:

Trip Planner

Search our weather history database for the weather conditions in past years. The results will help you decide how hot, cold, wet, or windy it might be!

Date:

Astronomy

Feb. 14, 2013 Rise Set
Actual Time 6:36 AM AST 6:11 PM AST
Civil Twilight 6:14 AM AST 6:33 PM AST
Nautical Twilight 5:48 AM AST 6:59 PM AST
Astronomical Twilight 5:23 AM AST 7:24 PM AST
Moon 9:13 AM AST (2/14) 10:00 PM AST (2/14)
Length of Visible Light 12h 19m
Length of Day
11h 35m
Waxing Crescent, 18% of the Moon is Illuminated
Feb 14
Waxing Crescent
Feb 17
First Quarter
Feb 25
Full
Mar 5
Last Quarter
Mar 11
New

Hourly Weather History & Observations

Time (AST) Temp. Heat Index Dew Point Humidity Pressure Visibility Wind Dir Wind Speed Gust Speed Precip Events Conditions
12:00 AM 80 °F - 72 °F 69% 29.86 in 6 mi North 4.6 mph - -   Partly Cloudy
12:00 AM 80.6 °F 84.6 °F 71.6 °F 74% 29.86 in 6.2 mi North 4.6 mph - N/A   Scattered Clouds
1:00 AM 78.8 °F - 71.6 °F 78% 29.86 in 6.2 mi NNE 3.5 mph - N/A   Partly Cloudy
2:00 AM 78.8 °F - 71.6 °F 78% 29.86 in 6.2 mi NNE 3.5 mph - N/A   Partly Cloudy
3:00 AM 78 °F - 72 °F 75% 29.83 in 6 mi North 3.5 mph - -   Scattered Clouds
3:00 AM 78.8 °F - 71.6 °F 78% 29.86 in 6.2 mi North 3.5 mph - N/A   Partly Cloudy
4:00 AM 78.8 °F - 71.6 °F 78% 29.86 in 6.2 mi Calm Calm - N/A   Partly Cloudy
5:00 AM 78.8 °F - 71.6 °F 78% 29.86 in 5.0 mi Calm Calm - N/A   Scattered Clouds
6:00 AM 79 °F - 72 °F 72% 29.86 in 5 mi NE 3.5 mph - -   Smoke
6:00 AM 78.8 °F - 71.6 °F 78% 29.89 in 5.0 mi NE 3.5 mph - N/A   Scattered Clouds
7:00 AM 78.8 °F - 71.6 °F 78% 29.89 in 5.6 mi Calm Calm - N/A   Partly Cloudy
8:00 AM 80.6 °F 84.6 °F 71.6 °F 74% 29.89 in 6.2 mi NE 3.5 mph - N/A   Partly Cloudy
9:00 AM 84 °F - 72 °F 58% 29.89 in 6 mi East 3.5 mph - -   Scattered Clouds
9:00 AM 84.2 °F 89.6 °F 71.6 °F 66% 29.92 in 6.2 mi East 3.5 mph - N/A   Partly Cloudy
10:00 AM 84.2 °F 89.6 °F 71.6 °F 66% 29.92 in 6.2 mi SW 4.6 mph - N/A   Scattered Clouds
11:00 AM 86.0 °F 93.4 °F 73.4 °F 66% 29.92 in 6.2 mi WSW 8.1 mph - N/A   Scattered Clouds
12:00 PM 86 °F - 72 °F 54% 29.89 in 6 mi SW 10.4 mph - -   Scattered Clouds
12:00 PM 86.0 °F 91.8 °F 71.6 °F 62% 29.89 in 6.2 mi SW 10.4 mph - N/A   Partly Cloudy
1:00 PM 86.0 °F 90.4 °F 69.8 °F 58% 29.89 in 6.2 mi SW 11.5 mph - N/A   Partly Cloudy
2:00 PM 86.0 °F 91.8 °F 71.6 °F 62% 29.86 in 6.2 mi WSW 11.5 mph - N/A   Partly Cloudy
3:00 PM 86 °F - 72 °F 54% 29.83 in 6 mi WSW 13.8 mph - -   Scattered Clouds
3:00 PM 86.0 °F 91.8 °F 71.6 °F 62% 29.83 in 6.2 mi WSW 13.8 mph - N/A   Partly Cloudy
4:00 PM 86.0 °F 91.8 °F 71.6 °F 62% 29.83 in 6.2 mi SW 10.4 mph - N/A   Partly Cloudy
5:00 PM 84.2 °F 90.9 °F 73.4 °F 70% 29.86 in - WSW 10.4 mph - N/A   Clear
6:00 PM 83 °F - 73 °F 66% 29.83 in 6 mi SW 8.1 mph - -   Scattered Clouds
6:00 PM 82.4 °F 88.2 °F 73.4 °F 74% 29.86 in 6.2 mi SW 8.1 mph - N/A   Partly Cloudy
7:00 PM 82.4 °F 88.2 °F 73.4 °F 74% 29.86 in 6.2 mi SW 3.5 mph - N/A   Partly Cloudy
8:00 PM 82.4 °F 88.2 °F 73.4 °F 74% 29.89 in 6.2 mi South 3.5 mph - N/A   Partly Cloudy
9:00 PM 81 °F - 73 °F 72% 29.86 in 6 mi SW 3.5 mph - -   Scattered Clouds
9:00 PM 80.6 °F 85.4 °F 73.4 °F 79% 29.89 in 6.2 mi SW 3.5 mph - N/A   Partly Cloudy
10:00 PM 80.6 °F 85.4 °F 73.4 °F 79% 29.89 in 6.2 mi South 3.5 mph - N/A   Partly Cloudy
11:00 PM 80.6 °F 85.4 °F 73.4 °F 79% 29.89 in 6.2 mi Calm Calm - N/A   Partly Cloudy